Home   Weather   Busan   Past weeks

Flag for South Korea Past Weather in Busan, South Korea — Yesterday and Last 2 Weeks

Now
27 °F

Clear.


Feels Like: 23 °F
Forecast: 31 / 46 °F
Wind: 3 mph from North

Location: Pusan / Kimhae International Airport

Current Time: Jan 17, 2017 at 4:24:53 am

Latest Report: Jan 17, 2017 at 3:00 am


Visibility: 10 mi

Pressure: 30.42 "Hg

Humidity: 64%

Dew Point: 16 °F

Location of BusanLocation

Past Weather in Busan — Graph

°F

Busan Temperature Yesterday

Maximum temperature yesterday: 45 °F (at 4:00 pm)
Minimum temperature yesterday: 25 °F (at 5:00 am)
Average temperature yesterday: 33 °F

High & Low Weather Summary for the Past Weeks

 TemperatureHumidityPressure
High59 °F (Jan 2, 3:00 pm)93% (Jan 8, 11:00 pm)30.42 "Hg (Jan 8, 11:00 pm)
Low19 °F (Jan 15, 5:00 am)22% (Jan 15, 4:00 pm)29.83 "Hg (Jan 8, 2:00 pm)
Average39 °F59%30.15 "Hg
* Reported Jan 2 3:00 am — Jan 17 3:00 am, Busan, Weather by CustomWeather, © 2017

Note: Actual official high and low records may vary slightly from our data, if they occured in-between our weather recording intervals... More about our weather records

Advertising

Busan Weather History for the Previous 24 Hours

Scroll right to see more
 ConditionsComfort  
Time TempWeatherWind HumidityBarometerVisibility
3:00 am
Tue, Jan 17
27 °FClear.3 mph64%30.42 "Hg10 mi
2:00 am27 °FClear.3 mph64%30.42 "Hg10 mi
1:00 am28 °FClear.7 mph59%30.39 "Hg10 mi
12:00 am28 °FClear.5 mph59%30.42 "Hg10 mi
11:00 pm
Mon, Jan 16
28 °FClear.3 mph59%30.39 "Hg10 mi
10:00 pm34 °FClear.5 mph44%30.39 "Hg10 mi
9:00 pm34 °FClear.3 mph56%30.36 "Hg10 mi
8:00 pm34 °FClear.5 mph48%30.36 "Hg10 mi
7:00 pm37 °FClear.3 mph38%30.36 "Hg10 mi
6:00 pm37 °FClear.5 mph45%30.33 "Hg10 mi
5:00 pm43 °FSunny.8 mph39%30.30 "Hg10 mi
4:00 pm45 °FSunny.8 mph34%30.30 "Hg10 mi
3:00 pm43 °FSunny.9 mph39%30.27 "Hg10 mi
2:00 pm43 °FSunny.9 mph39%30.27 "Hg10 mi
1:00 pm39 °FSunny.9 mph42%30.27 "Hg10 mi
12:00 pm37 °FSunny.9 mph41%30.30 "Hg10 mi
11:00 am34 °FSunny.10 mph44%30.33 "Hg10 mi
10:00 am32 °FSunny.10 mph47%30.33 "Hg10 mi
9:00 am28 °FSunny.5 mph51%30.33 "Hg10 mi
8:00 am27 °FSunny.3 mph43%30.33 "Hg10 mi
7:00 am25 °FClear.6 mph46%30.30 "Hg10 mi
6:00 am27 °FClear.2 mph50%30.30 "Hg10 mi
5:00 am25 °FClear.2 mph42%30.30 "Hg10 mi
4:00 am28 °FClear.9 mph51%30.27 "Hg10 mi
Weather by CustomWeather, © 2017

See weather overviewHow to use our weather pages